TimeEST,TemperatureF,Dew PointF,Humidity,Sea Level PressureIn,VisibilityMPH,Wind Direction,Wind SpeedMPH,Gust SpeedMPH,PrecipitationIn,Events,Conditions,WindDirDegrees,DateUTC
12:15 AM,41.0,41.0,100,30.30,10.0,North,6.9,-,N/A,Rain,Light Rain,350,2012-12-13 05:15:00
12:35 AM,41.0,41.0,100,30.29,2.0,North,12.7,-,0.05,Rain,Heavy Rain,360,2012-12-13 05:35:00
12:55 AM,41.0,41.0,100,30.30,2.5,North,9.2,-,0.09,Rain,Light Rain,360,2012-12-13 05:55:00
1:15 AM,41.0,41.0,100,30.29,2.0,NNE,9.2,-,0.05,Rain,Heavy Rain,30,2012-12-13 06:15:00
1:35 AM,39.2,39.2,100,30.27,3.0,NNE,10.4,-,0.12,Rain,Heavy Rain,30,2012-12-13 06:35:00
1:55 AM,39.2,39.2,100,30.26,3.0,NNE,10.4,-,0.19,Rain,Heavy Rain,30,2012-12-13 06:55:00
2:15 AM,39.2,39.2,100,30.25,3.0,NE,16.1,21.9,0.05,Rain,Heavy Rain,40,2012-12-13 07:15:00
2:35 AM,39.2,39.2,100,30.23,5.0,ENE,16.1,19.6,0.07,Rain,Light Rain,60,2012-12-13 07:35:00
2:55 AM,39.2,39.2,100,30.23,6.0,ENE,13.8,20.7,0.08,Rain,Light Rain,60,2012-12-13 07:55:00
3:15 AM,39.2,39.2,100,30.22,7.0,ENE,9.2,17.3,0.01,Rain,Light Rain,60,2012-12-13 08:15:00
3:35 AM,39.2,39.2,100,30.24,10.0,NE,6.9,-,0.01,Rain,Light Rain,40,2012-12-13 08:35:00
3:55 AM,39.2,39.2,100,30.24,10.0,NE,9.2,-,0.01,Rain,Light Rain,40,2012-12-13 08:55:00
4:15 AM,39.2,39.2,100,30.24,8.0,NNE,10.4,-,N/A,Rain,Light Rain,30,2012-12-13 09:15:00
4:35 AM,39.2,39.2,100,30.23,7.0,NNE,12.7,-,0.01,Rain,Light Rain,30,2012-12-13 09:35:00
4:55 AM,39.2,39.2,100,30.23,9.0,NNE,13.8,17.3,0.01,Rain,Light Rain,30,2012-12-13 09:55:00
5:15 AM,39.2,39.2,100,30.27,10.0,North,9.2,16.1,N/A,,Overcast,10,2012-12-13 10:15:00
5:35 AM,39.2,39.2,100,30.28,9.0,North,8.1,17.3,N/A,,Overcast,10,2012-12-13 10:35:00
5:55 AM,39.2,39.2,100,30.29,8.0,North,10.4,-,N/A,,Overcast,10,2012-12-13 10:55:00
6:15 AM,39.2,39.2,100,30.30,2.5,NNE,9.2,-,N/A,Rain,Light Rain,20,2012-12-13 11:15:00
6:35 AM,39.2,39.2,100,30.31,7.0,NNE,10.4,-,N/A,Rain,Light Rain,30,2012-12-13 11:35:00
6:55 AM,39.2,39.2,100,30.32,3.0,NNE,11.5,-,N/A,Rain,Light Rain,20,2012-12-13 11:55:00
7:15 AM,39.2,39.2,100,30.32,2.5,NNE,11.5,-,N/A,Rain,Light Rain,30,2012-12-13 12:15:00
7:35 AM,39.2,39.2,100,30.32,2.0,NNE,10.4,17.3,N/A,Rain,Light Rain,30,2012-12-13 12:35:00
7:55 AM,39.2,39.2,100,30.32,3.0,NNE,10.4,-,N/A,Rain,Light Rain,30,2012-12-13 12:55:00
8:15 AM,39.2,39.2,100,30.33,7.0,NNE,10.4,-,N/A,,Overcast,20,2012-12-13 13:15:00
8:35 AM,39.2,39.2,100,30.34,8.0,North,11.5,-,N/A,,Overcast,10,2012-12-13 13:35:00
8:55 AM,39.2,39.2,100,30.36,7.0,North,10.4,-,N/A,,Overcast,10,2012-12-13 13:55:00
9:15 AM,39.2,39.2,100,30.36,8.0,North,10.4,-,N/A,,Overcast,10,2012-12-13 14:15:00
9:35 AM,41.0,39.2,93,30.36,5.0,NNE,11.5,19.6,N/A,,Overcast,30,2012-12-13 14:35:00
9:55 AM,41.0,39.2,93,30.36,10.0,NNE,9.2,18.4,N/A,,Mostly Cloudy,30,2012-12-13 14:55:00
10:15 AM,44.6,39.2,81,30.37,10.0,NE,13.8,18.4,N/A,,Mostly Cloudy,50,2012-12-13 15:15:00
10:35 AM,44.6,39.2,81,30.36,10.0,NNE,11.5,18.4,N/A,,Mostly Cloudy,30,2012-12-13 15:35:00
10:55 AM,46.4,39.2,76,30.36,10.0,NE,13.8,-,N/A,,Mostly Cloudy,40,2012-12-13 15:55:00
11:15 AM,46.4,39.2,76,30.36,10.0,NE,15.0,21.9,N/A,,Overcast,40,2012-12-13 16:15:00
11:35 AM,46.4,39.2,76,30.36,10.0,NE,15.0,-,N/A,,Overcast,40,2012-12-13 16:35:00
11:55 AM,48.2,39.2,71,30.35,10.0,ENE,11.5,-,N/A,,Overcast,60,2012-12-13 16:55:00
12:15 PM,48.2,39.2,71,30.34,10.0,NNE,11.5,17.3,N/A,,Overcast,30,2012-12-13 17:15:00
12:35 PM,48.2,39.2,71,30.34,10.0,NE,12.7,17.3,N/A,,Overcast,40,2012-12-13 17:35:00
12:55 PM,48.2,39.2,71,30.33,10.0,NE,13.8,-,N/A,,Overcast,50,2012-12-13 17:55:00
1:15 PM,50.0,39.2,66,30.32,10.0,NE,9.2,-,N/A,,Overcast,50,2012-12-13 18:15:00
1:35 PM,50.0,41.0,71,30.32,10.0,NE,10.4,-,N/A,,Overcast,40,2012-12-13 18:35:00
1:55 PM,50.0,41.0,71,30.31,10.0,ENE,10.4,-,N/A,,Overcast,60,2012-12-13 18:55:00
2:15 PM,50.0,41.0,71,30.31,10.0,NE,9.2,-,N/A,,Overcast,50,2012-12-13 19:15:00
2:35 PM,50.0,39.2,66,30.30,10.0,NNE,9.2,-,N/A,,Mostly Cloudy,20,2012-12-13 19:35:00
2:55 PM,51.8,39.2,62,30.30,10.0,NE,8.1,-,N/A,,Partly Cloudy,40,2012-12-13 19:55:00
3:15 PM,51.8,41.0,67,30.30,10.0,NE,11.5,-,N/A,,Clear,40,2012-12-13 20:15:00
3:35 PM,51.8,41.0,67,30.29,10.0,NNE,6.9,-,N/A,,Clear,30,2012-12-13 20:35:00
3:55 PM,51.8,41.0,67,30.30,10.0,NNE,6.9,-,N/A,,Clear,20,2012-12-13 20:55:00
4:15 PM,51.8,41.0,67,30.30,10.0,NNE,8.1,-,N/A,,Clear,30,2012-12-13 21:15:00
4:35 PM,51.8,41.0,67,30.30,10.0,NE,6.9,-,N/A,,Clear,40,2012-12-13 21:35:00
4:55 PM,50.0,41.0,71,30.31,10.0,NNE,6.9,-,N/A,,Clear,30,2012-12-13 21:55:00
5:35 PM,46.4,41.0,81,30.31,10.0,Calm,Calm,-,N/A,,Clear,0,2012-12-13 22:35:00
7:15 PM,42.8,39.2,87,30.34,10.0,Calm,Calm,-,N/A,,Clear,0,2012-12-14 00:15:00
8:15 PM,39.2,39.2,100,30.35,10.0,Calm,Calm,-,N/A,,Clear,0,2012-12-14 01:15:00
8:35 PM,37.4,37.4,100,30.34,8.0,Calm,Calm,-,N/A,,Clear,0,2012-12-14 01:35:00
8:55 PM,39.2,37.4,93,30.33,10.0,ENE,3.5,-,N/A,,Clear,60,2012-12-14 01:55:00
9:15 PM,41.0,37.4,87,30.33,10.0,ENE,3.5,-,N/A,,Clear,60,2012-12-14 02:15:00
9:35 PM,39.2,37.4,93,30.34,10.0,NE,4.6,-,N/A,,Clear,50,2012-12-14 02:35:00
9:55 PM,39.2,37.4,93,30.34,10.0,NNE,3.5,-,N/A,,Clear,30,2012-12-14 02:55:00
10:15 PM,39.2,37.4,93,30.35,10.0,Calm,Calm,-,N/A,,Clear,0,2012-12-14 03:15:00
10:35 PM,37.4,37.4,100,30.36,10.0,Calm,Calm,-,N/A,,Clear,0,2012-12-14 03:35:00
10:55 PM,37.4,37.4,100,30.36,10.0,Calm,Calm,-,N/A,,Clear,0,2012-12-14 03:55:00
11:15 PM,35.6,35.6,100,30.36,9.0,Calm,Calm,-,N/A,,Clear,0,2012-12-14 04:15:00
11:35 PM,35.6,35.6,100,30.36,10.0,Calm,Calm,-,N/A,,Clear,0,2012-12-14 04:35:00
11:55 PM,35.6,35.6,100,30.36,10.0,Calm,Calm,-,N/A,,Clear,0,2012-12-14 04:55:00